Location: Newark
(53.4333°N, 36.0000°E)
Time: 00:11:17
(UTC+00:00)

ISS - Pass Details

Date: 26 September 2019
Orbit: 411 x 421 km, 51.6° (Epoch: 15 October)

Event Time Altitude Azimuth Distance (km) Brightness Sun altitude
Rises 16:13:17 0° 241° (WSW) 2,340 1.0 -7.9°
Reaches altitude 10° 16:15:25 10° 235° (SW) 1,479 -0.3 -8.2°
Maximum altitude 16:18:35 43° 162° (SSE) 588 -3.2 -8.6°
Enters shadow 16:21:20 13° 92° (E) 1,318 -1.9 -9.1°
